Chatham, MA

10:33 AM EDT on April 27, 2017 (GMT -0400)
Chatham Municipal

Weather History for KCQX - May, 2013

Change the Weather History Date:

Sunday, May 12, 2013

  Actual Average Record
Temperature  
Mean Temperature 56 °F -  
Max Temperature 61 °F 58 °F 78 °F (2004)
Min Temperature 54 °F 44 °F 41 °F (2000)
Degree Days  
Heating Degree Days 8    
Growing Degree Days 6 (Base 50)    
Moisture  
Dew Point 55 °F    
Average Humidity 94    
Maximum Humidity 100    
Minimum Humidity 51    
Precipitation  
Precipitation 0.19 in - - ()
Sea Level Pressure  
Sea Level Pressure 29.69 in    
Wind  
Wind Speed 8 mph (SW)    
Max Wind Speed 10 mph    
Max Gust Speed 22 mph    
Visibility 4 miles    
Events Fog , Rain    
Averages and records for this station are not official NWS values.
T = Trace of Precipitation, MM = Missing Value Source: NWS Daily Summary

Daily Weather History Graph

Daily Weather History Graph

Search for Another Location

Airport or City:

Trip Planner

Search our weather history database for the weather conditions in past years. The results will help you decide how hot, cold, wet, or windy it might be!

Date:

Astronomy

May. 12, 2013 Rise Set
Actual Time 5:23 AM EDT 7:50 PM EDT
Civil Twilight 4:51 AM EDT 8:21 PM EDT
Nautical Twilight 4:12 AM EDT 9:00 PM EDT
Astronomical Twilight 3:29 AM EDT 9:44 PM EDT
Moon 7:15 AM EDT (5/12) 10:14 PM EDT (5/12)
Length of Visible Light 15h 29m
Length of Day
14h 26m
Waxing Crescent, 6% of the Moon is Illuminated
May 12
Waxing Crescent
May 18
First Quarter
May 25
Full
May 31
Last Quarter
Jun 8
New

Hourly Weather History & Observations

Time (EDT) Temp. Dew Point Humidity Pressure Visibility Wind Dir Wind Speed Gust Speed Precip Events Conditions
1:52 AM 57.0 °F 57.0 °F 100% 29.75 in 5.0 mi SW 10.4 mph - 0.00 in   Overcast
2:11 AM 57.2 °F 57.2 °F 100% 29.73 in 2.5 mi SW 8.1 mph - N/A   Overcast
2:45 AM 57.2 °F 57.2 °F 100% 29.71 in 4.0 mi SW 9.2 mph 17.3 mph N/A   Overcast
2:52 AM 57.0 °F 57.0 °F 100% 29.72 in 5.0 mi SW 10.4 mph 17.3 mph N/A   Overcast
3:22 AM 55.4 °F 55.4 °F 100% 29.71 in 2.5 mi SSW 6.9 mph - N/A   Overcast
3:32 AM 55.4 °F 55.4 °F 100% 29.73 in 4.0 mi SSW 8.1 mph 16.1 mph N/A   Overcast
3:49 AM 57.2 °F 57.2 °F 100% 29.72 in 2.0 mi Variable 5.8 mph - N/A   Overcast
3:52 AM 57.0 °F 57.0 °F 100% 29.72 in 1.8 mi SSW 4.6 mph - N/A   Overcast
4:08 AM 55.4 °F 55.4 °F 100% 29.71 in 0.8 mi South 6.9 mph - N/A   Mist
4:35 AM 55.4 °F 55.4 °F 100% 29.69 in 0.2 mi Variable 5.8 mph - N/A Fog Fog
4:47 AM 55.4 °F 55.4 °F 100% 29.69 in 0.5 mi South 8.1 mph - N/A Fog Fog
4:52 AM 55.9 °F 55.9 °F 100% 29.70 in 0.8 mi South 6.9 mph - N/A   Mist
5:05 AM 57.2 °F 57.2 °F 100% 29.70 in 2.0 mi South 8.1 mph - N/A   Overcast
5:13 AM 57.2 °F 57.2 °F 100% 29.70 in 5.0 mi SSW 6.9 mph - N/A   Overcast
5:44 AM 55.4 °F 55.4 °F 100% 29.71 in 1.8 mi South 10.4 mph 16.1 mph N/A   Overcast
5:52 AM 57.0 °F 57.0 °F 100% 29.71 in 1.0 mi South 8.1 mph 16.1 mph 0.00 in Rain Light Rain
6:15 AM 57.2 °F 57.2 °F 100% 29.70 in 2.0 mi SSW 5.8 mph - 0.05 in Rain Rain
6:32 AM 57.2 °F 57.2 °F 100% 29.70 in 3.0 mi SSW 5.8 mph - 0.06 in Rain Light Rain
6:52 AM 57.0 °F 57.0 °F 100% 29.70 in 5.0 mi SW 8.1 mph - 0.06 in Rain Light Rain
7:30 AM 57.2 °F 57.2 °F 100% 29.68 in 2.0 mi SSW 4.6 mph - 0.02 in Rain Light Rain
7:40 AM 57.2 °F 57.2 °F 100% 29.67 in 1.5 mi SSW 6.9 mph - 0.02 in Rain Light Rain
7:52 AM 57.9 °F 57.9 °F 100% 29.67 in 1.8 mi SSW 8.1 mph - 0.04 in Rain Light Rain
7:59 AM 57.2 °F 57.2 °F 100% 29.66 in 2.5 mi SSW 8.1 mph - 0.01 in Rain Light Rain
8:18 AM 57.2 °F 57.2 °F 100% 29.67 in 3.0 mi SW 9.2 mph - 0.04 in Rain Rain
8:52 AM 57.0 °F 57.0 °F 100% 29.67 in 4.0 mi SW 6.9 mph - 0.07 in Rain Light Rain
9:52 AM 55.9 °F 55.9 °F 100% 29.65 in 4.0 mi SW 6.9 mph - 0.02 in Rain Light Rain
10:52 AM 57.0 °F 57.0 °F 100% 29.65 in 8.0 mi SW 5.8 mph - 0.00 in   Overcast
11:52 AM 57.9 °F 57.9 °F 100% 29.65 in 4.0 mi WSW 5.8 mph - N/A   Overcast
12:02 PM 57.2 °F 57.2 °F 100% 29.65 in 2.0 mi SW 5.8 mph - N/A   Overcast
12:43 PM 57.2 °F 57.2 °F 100% 29.65 in 1.2 mi SSW 5.8 mph - N/A   Overcast
12:52 PM 57.9 °F 57.9 °F 100% 29.65 in 1.0 mi SW 6.9 mph - N/A   Overcast
1:06 PM 57.2 °F 55.4 °F 94% 29.65 in 3.0 mi SSW 9.2 mph - N/A   Overcast
1:52 PM 57.0 °F 55.9 °F 96% 29.65 in 5.0 mi SW 6.9 mph 21.9 mph N/A   Overcast
2:52 PM 57.0 °F 55.9 °F 96% 29.64 in 5.0 mi SW 8.1 mph - N/A   Mostly Cloudy
3:17 PM 57.2 °F 55.4 °F 94% 29.63 in 6.0 mi SW 9.2 mph - N/A   Scattered Clouds
3:52 PM 57.0 °F 54.0 °F 89% 29.64 in 8.0 mi SW 10.4 mph 19.6 mph N/A   Clear
4:52 PM 59.0 °F 53.1 °F 81% 29.64 in 10.0 mi WSW 10.4 mph 18.4 mph N/A   Clear
5:52 PM 59.0 °F 52.0 °F 78% 29.65 in 10.0 mi SW 10.4 mph - N/A   Clear
6:52 PM 57.9 °F 51.1 °F 78% 29.67 in 10.0 mi Variable 6.9 mph 16.1 mph N/A   Clear
7:52 PM 57.0 °F 50.0 °F 77% 29.70 in 10.0 mi WSW 10.4 mph 21.9 mph N/A   Clear
8:52 PM 55.9 °F 50.0 °F 80% 29.72 in 10.0 mi WSW 5.8 mph - N/A   Clear
9:52 PM 54.0 °F 48.0 °F 80% 29.75 in 10.0 mi WNW 4.6 mph - N/A   Partly Cloudy
10:52 PM 55.0 °F 39.9 °F 57% 29.78 in 10.0 mi NW 6.9 mph - N/A   Clear
11:52 PM 54.0 °F 36.0 °F 51% 29.81 in 10.0 mi Variable 4.6 mph - N/A   Mostly Cloudy